TimeCDT,TemperatureF,Dew PointF,Humidity,Sea Level PressureIn,VisibilityMPH,Wind Direction,Wind SpeedMPH,Gust SpeedMPH,PrecipitationIn,Events,Conditions,WindDirDegrees,DateUTC
12:52 AM,46.0,37.9,73,30.03,10.0,NW,10.4,-,N/A,,Clear,310,2013-11-02 05:52:00
1:52 AM,44.1,37.0,76,30.04,10.0,NW,6.9,-,N/A,,Clear,310,2013-11-02 06:52:00
2:52 AM,42.1,36.0,79,30.05,10.0,NW,4.6,-,N/A,,Clear,310,2013-11-02 07:52:00
3:52 AM,44.1,37.0,76,30.05,10.0,NW,11.5,-,N/A,,Clear,310,2013-11-02 08:52:00
4:52 AM,42.1,36.0,79,30.08,10.0,WNW,5.8,-,N/A,,Clear,300,2013-11-02 09:52:00
5:52 AM,42.1,35.1,76,30.11,10.0,NW,9.2,-,N/A,,Clear,310,2013-11-02 10:52:00
6:52 AM,41.0,35.1,79,30.13,10.0,NW,9.2,-,N/A,,Clear,310,2013-11-02 11:52:00
7:52 AM,39.0,34.0,82,30.16,10.0,NW,8.1,-,N/A,,Clear,310,2013-11-02 12:52:00
8:52 AM,42.1,36.0,79,30.19,10.0,NW,8.1,-,N/A,,Clear,310,2013-11-02 13:52:00
9:52 AM,46.0,36.0,68,30.22,10.0,NNW,16.1,-,N/A,,Clear,330,2013-11-02 14:52:00
10:52 AM,50.0,37.9,63,30.22,10.0,NW,12.7,-,N/A,,Clear,320,2013-11-02 15:52:00
11:52 AM,53.1,35.1,50,30.23,10.0,NW,16.1,21.9,N/A,,Clear,320,2013-11-02 16:52:00
12:52 PM,55.0,36.0,49,30.23,10.0,NW,12.7,-,N/A,,Clear,320,2013-11-02 17:52:00
1:52 PM,57.0,35.1,44,30.21,10.0,NW,13.8,20.7,N/A,,Clear,310,2013-11-02 18:52:00
2:52 PM,57.9,34.0,41,30.19,10.0,NW,13.8,-,N/A,,Clear,310,2013-11-02 19:52:00
3:52 PM,60.1,34.0,38,30.18,10.0,North,9.2,-,N/A,,Clear,350,2013-11-02 20:52:00
4:52 PM,57.9,33.1,39,30.19,10.0,NW,9.2,-,N/A,,Clear,320,2013-11-02 21:52:00
5:52 PM,53.1,34.0,48,30.19,10.0,NW,4.6,-,N/A,,Clear,310,2013-11-02 22:52:00
6:52 PM,44.1,35.1,71,30.19,10.0,Calm,Calm,-,N/A,,Clear,0,2013-11-02 23:52:00
7:52 PM,39.0,33.1,79,30.20,10.0,Calm,Calm,-,N/A,,Clear,0,2013-11-03 00:52:00
8:52 PM,37.0,33.1,86,30.20,10.0,Calm,Calm,-,N/A,,Clear,0,2013-11-03 01:52:00
9:52 PM,36.0,32.0,86,30.20,10.0,Calm,Calm,-,N/A,,Clear,0,2013-11-03 02:52:00
10:52 PM,35.1,30.9,85,30.19,10.0,ESE,3.5,-,N/A,,Clear,110,2013-11-03 03:52:00
11:52 PM,34.0,30.9,89,30.19,10.0,East,3.5,-,N/A,,Clear,90,2013-11-03 04:52:00